Location: *
(31.2983°S, 151.4094°E)
Time: 18:37:04
(UTC+00:00)

NOSS 3-4 (A) - Pass Details

Date: 25 August 2019
Orbit: 910 x 1303 km, 63.4° (Epoch: 21 September)

Event Time Altitude Azimuth Distance (km) Brightness Sun altitude
Exits shadow 18:09:15 23° 341° (NNW) 2,472 5.3 -28.4°
Maximum altitude 18:14:48 77° 63° (ENE) 1,334 4.1 -27.2°
Drops below altitude 10° 18:22:48 10° 147° (SSE) 3,257 6.6 -25.5°
Sets 18:25:32 0° 148° (SSE) 4,190 7.3 -24.9°
